Decatur, TX

8:13 PM CDT on September 30, 2016 (GMT -0500)
Decatur

Weather History for KLUD - February, 2012

Change the Weather History Date:

Wednesday, February 29, 2012

  Actual Average (KDTO) Record (KDTO)
Temperature  
Mean Temperature 61 °F -  
Max Temperature 71 °F 58 °F 75 °F (2016)
Min Temperature 51 °F 36 °F 44 °F (2012)
Degree Days  
Heating Degree Days 4    
Growing Degree Days 11 (Base 50)    
Moisture  
Dew Point 26 °F    
Average Humidity 28    
Maximum Humidity 83    
Minimum Humidity 13    
Precipitation  
Precipitation 0.04 in - - ()
Sea Level Pressure  
Sea Level Pressure 29.97 in    
Wind  
Wind Speed 7 mph (West)    
Max Wind Speed 15 mph    
Max Gust Speed 17 mph    
Visibility 10 miles    
Events      
Averages and records for this station are not official NWS values.
T = Trace of Precipitation, MM = Missing Value Source: NWS Daily Summary

Daily Weather History Graph

Daily Weather History Graph

Search for Another Location

Airport or City:

Trip Planner

Search our weather history database for the weather conditions in past years. The results will help you decide how hot, cold, wet, or windy it might be!

Date:

Astronomy

Feb. 29, 2012 Rise Set
Actual Time 6:59 AM CST 6:26 PM CST
Civil Twilight 6:34 AM CST 6:51 PM CST
Nautical Twilight 6:05 AM CST 7:20 PM CST
Astronomical Twilight 5:36 AM CST 7:49 PM CST
Moon 11:14 AM CST (2/29) 12:52 AM CST (2/29)
Length of Visible Light 12h 17m
Length of Day
11h 27m
Waxing Crescent, 47% of the Moon is Illuminated
Feb 29
Waxing Crescent
Feb 29
First Quarter
Mar 8
Full
Mar 14
Last Quarter
Mar 22
New

Hourly Weather History & Observations

Time (CST) Temp. Dew Point Humidity Pressure Visibility Wind Dir Wind Speed Gust Speed Precip Events Conditions
12:15 AM 64.4 °F 59.0 °F 83% 29.92 in 10.0 mi SW 5.8 mph - N/A   Scattered Clouds
12:35 AM 64.4 °F 59.0 °F 83% 29.94 in 10.0 mi WSW 5.8 mph - N/A   Scattered Clouds
12:55 AM 64.4 °F 59.0 °F 83% 29.95 in 10.0 mi West 6.9 mph - N/A   Mostly Cloudy
1:15 AM 64.4 °F 55.4 °F 73% 29.95 in 10.0 mi WNW 8.1 mph - N/A   Overcast
1:35 AM 64.4 °F 41.0 °F 42% 29.95 in 10.0 mi WNW 5.8 mph - N/A   Overcast
1:55 AM 64.4 °F 32.0 °F 30% 29.94 in 10.0 mi WNW 5.8 mph - N/A   Mostly Cloudy
2:15 AM 62.6 °F 30.2 °F 30% 29.95 in 10.0 mi West 6.9 mph - N/A   Scattered Clouds
2:35 AM 62.6 °F 30.2 °F 30% 29.95 in 10.0 mi West 8.1 mph - N/A   Scattered Clouds
2:55 AM 62.6 °F 28.4 °F 27% 29.95 in 10.0 mi West 8.1 mph - N/A   Scattered Clouds
3:15 AM 60.8 °F 28.4 °F 29% 29.95 in 10.0 mi WNW 9.2 mph - N/A   Scattered Clouds
3:55 AM 59.0 °F 26.6 °F 29% 29.95 in 10.0 mi WNW 8.1 mph - N/A   Clear
4:15 AM 57.2 °F 26.6 °F 31% 29.95 in 10.0 mi WNW 9.2 mph - N/A   Clear
4:35 AM 55.4 °F 24.8 °F 31% 29.96 in 10.0 mi West 9.2 mph - N/A   Clear
4:55 AM 55.4 °F 24.8 °F 31% 29.97 in 10.0 mi West 8.1 mph - N/A   Clear
5:15 AM 55.4 °F 24.8 °F 31% 29.98 in 10.0 mi West 5.8 mph - N/A   Clear
5:35 AM 55.4 °F 23.0 °F 29% 29.99 in 10.0 mi West 5.8 mph - N/A   Clear
6:15 AM 53.6 °F 23.0 °F 30% 30.00 in 10.0 mi WSW 6.9 mph - N/A   Clear
6:35 AM 53.6 °F 23.0 °F 30% 30.00 in 10.0 mi WSW 8.1 mph - N/A   Clear
6:55 AM 51.8 °F 23.0 °F 33% 30.00 in 10.0 mi West 6.9 mph - N/A   Clear
7:15 AM 51.8 °F 23.0 °F 33% 30.00 in 10.0 mi WSW 8.1 mph - N/A   Clear
7:35 AM 51.8 °F 23.0 °F 33% 30.00 in 10.0 mi West 8.1 mph - N/A   Clear
7:55 AM 51.8 °F 26.6 °F 38% 30.01 in 10.0 mi WSW 6.9 mph - N/A   Clear
8:15 AM 51.8 °F 24.8 °F 35% 30.03 in 10.0 mi West 6.9 mph - N/A   Clear
8:35 AM 53.6 °F 26.6 °F 35% 30.04 in 10.0 mi West 10.4 mph - N/A   Clear
8:55 AM 53.6 °F 26.6 °F 35% 30.04 in 10.0 mi West 9.2 mph - N/A   Clear
9:15 AM 55.4 °F 24.8 °F 31% 30.04 in 10.0 mi WNW 10.4 mph - N/A   Clear
9:35 AM 57.2 °F 24.8 °F 29% 30.05 in 10.0 mi WNW 9.2 mph - N/A   Clear
10:15 AM 60.8 °F 24.8 °F 25% 30.06 in 10.0 mi NW 9.2 mph - N/A   Clear
10:35 AM - - N/A% - - North - - N/A   Unknown
10:55 AM 64.4 °F 23.0 °F 21% 30.05 in 10.0 mi NW 15.0 mph - 0.04 in   Clear
11:15 AM 64.4 °F 21.2 °F 19% 30.05 in 10.0 mi NW 10.4 mph 16.1 mph N/A   Clear
11:35 AM 64.4 °F 21.2 °F 19% 30.04 in 10.0 mi NW 5.8 mph - N/A   Clear
11:55 AM 66.2 °F 19.4 °F 17% 30.04 in 10.0 mi NNW 6.9 mph - N/A   Clear
12:15 PM 66.2 °F 21.2 °F 18% 30.02 in 10.0 mi North 3.5 mph - N/A   Clear
12:35 PM 68.0 °F 21.2 °F 17% 30.01 in 10.0 mi Calm Calm - N/A   Clear
12:55 PM 68.0 °F 19.4 °F 16% 30.00 in 10.0 mi Calm Calm - N/A   Clear
1:15 PM 68.0 °F 21.2 °F 17% 30.00 in 10.0 mi SSW 3.5 mph - N/A   Clear
1:35 PM 68.0 °F 21.2 °F 17% 29.99 in 10.0 mi SSW 5.8 mph - N/A   Clear
1:55 PM 69.8 °F 21.2 °F 16% 29.97 in 10.0 mi West 11.5 mph - N/A   Clear
2:15 PM 69.8 °F 19.4 °F 15% 29.97 in 10.0 mi WNW 10.4 mph 16.1 mph N/A   Clear
2:35 PM 71.6 °F 19.4 °F 14% 29.96 in 10.0 mi WNW 11.5 mph - N/A   Clear
2:55 PM 71.6 °F 21.2 °F 15% 29.96 in 10.0 mi West 10.4 mph - N/A   Clear
3:15 PM 71.6 °F 17.6 °F 13% 29.95 in 10.0 mi WNW 9.2 mph 17.3 mph N/A   Clear
3:35 PM 71.6 °F 17.6 °F 13% 29.95 in 10.0 mi West 10.4 mph 16.1 mph N/A   Clear
3:55 PM 71.6 °F 17.6 °F 13% 29.95 in 10.0 mi WNW 10.4 mph - N/A   Clear
4:15 PM 71.6 °F 17.6 °F 13% 29.95 in 10.0 mi West 11.5 mph 16.1 mph N/A   Clear
4:35 PM 69.8 °F 19.4 °F 15% 29.94 in 10.0 mi West 6.9 mph - N/A   Clear
4:55 PM 69.8 °F 19.4 °F 15% 29.94 in 10.0 mi WNW 5.8 mph - N/A   Clear
5:15 PM 69.8 °F 19.4 °F 15% 29.94 in 10.0 mi WNW 5.8 mph - N/A   Clear
5:35 PM 68.0 °F 19.4 °F 16% 29.94 in 10.0 mi West 5.8 mph - N/A   Clear
6:15 PM 64.4 °F 23.0 °F 21% 29.93 in 10.0 mi WNW 3.5 mph - N/A   Clear
6:35 PM 64.4 °F 21.2 °F 19% 29.93 in 10.0 mi Calm Calm - N/A   Clear
6:55 PM 64.4 °F 21.2 °F 19% 29.93 in 10.0 mi Calm Calm - N/A   Clear
7:15 PM 64.4 °F 21.2 °F 19% 29.93 in 10.0 mi Calm Calm - N/A   Clear
7:35 PM 62.6 °F 23.0 °F 22% 29.94 in 10.0 mi Calm Calm - N/A   Clear
7:55 PM 62.6 °F 21.2 °F 20% 29.93 in 10.0 mi Calm Calm - N/A   Clear
8:15 PM 60.8 °F 23.0 °F 23% 29.94 in 10.0 mi Calm Calm - N/A   Clear
8:35 PM 60.8 °F 23.0 °F 23% 29.94 in 10.0 mi ESE 4.6 mph - N/A   Clear
9:15 PM 60.8 °F 24.8 °F 25% 29.94 in 10.0 mi SE 5.8 mph - N/A   Clear
9:35 PM 60.8 °F 24.8 °F 25% 29.94 in 10.0 mi SE 5.8 mph - N/A   Clear
9:55 PM 60.8 °F 23.0 °F 23% 29.94 in 10.0 mi SE 5.8 mph - N/A   Clear
10:15 PM 59.0 °F 23.0 °F 25% 29.94 in 10.0 mi SE 6.9 mph - N/A   Clear
10:35 PM 59.0 °F 23.0 °F 25% 29.94 in 10.0 mi SSE 6.9 mph - N/A   Clear
10:55 PM 57.2 °F 24.8 °F 29% 29.93 in 10.0 mi SSE 5.8 mph - N/A   Clear
11:15 PM 57.2 °F 28.4 °F 33% 29.93 in 10.0 mi SSE 9.2 mph - N/A   Clear
11:35 PM 55.4 °F 28.4 °F 36% 29.93 in 10.0 mi SSE 8.1 mph - N/A   Clear
11:55 PM 57.2 °F 26.6 °F 31% 29.92 in 10.0 mi South 9.2 mph - N/A   Clear